CW2931 Weather Reports


Display with metric or nautical units.
time (UTC)temp
F
wind
direction
speed
MPH
gust
MPH
rain 1hr
in
rain 24hr
in
rain mn
in
humidity
%
barometer
mb
20210616004105 70 0 0.0 3.0 0.00 0.00 0.00 37 1016.4
20210616003604 70 5 1.0 3.0 0.00 0.00 0.00 37 1016.4
20210616003105 71 355 1.0 5.0 0.00 0.00 0.00 37 1016.3
20210616002605 71 9 1.0 3.0 0.00 0.00 0.00 37 1016.3
20210616002104 71 355 1.0 3.0 0.00 0.00 0.00 38 1016.2
20210616001604 71 355 1.0 2.0 0.00 0.00 0.00 40 1016.2
20210616001104 71 358 1.0 3.0 0.00 0.00 0.00 40 1016.2
20210616000605 71 355 0.0 3.0 0.00 0.00 0.00 40 1016.2
20210616000105 72 8 1.0 3.0 0.00 0.00 0.00 40 1016.2
20210615235604 72 0 2.0 5.0 0.00 0.00 0.00 39 1016.1
20210615235106 72 355 1.0 3.0 0.00 0.00 0.00 40 1016.1
20210615234604 72 355 0.0 3.0 0.00 0.00 0.00 38 1016.1
20210615234104 72 2 2.0 3.0 0.00 0.00 0.00 38 1016.1
20210615233606 72 5 0.0 3.0 0.00 0.00 0.00 38 1016.1
20210615233104 72 0 0.0 3.0 0.00 0.00 0.00 38 1016.1
20210615232604 73 355 2.0 3.0 0.00 0.00 0.00 37 1016.2
20210615232104 73 343 1.0 7.0 0.00 0.00 0.00 36 1016.2
20210615231605 73 359 2.0 7.0 0.00 0.00 0.00 38 1016.2
20210615231104 73 354 1.0 6.0 0.00 0.00 0.00 37 1016.1
20210615230605 74 355 0.0 2.0 0.00 0.00 0.00 37 1016.1
20210615230105 74 355 2.0 3.0 0.00 0.00 0.00 37 1016.1
20210615225604 74 5 0.0 2.0 0.00 0.00 0.00 39 1016.0
20210615225105 74 17 0.0 2.0 0.00 0.00 0.00 40 1015.9
20210615224604 74 17 0.0 3.0 0.00 0.00 0.00 41 1015.9
20210615224104 74 19 1.0 3.0 0.00 0.00 0.00 42 1015.9
20210615223604 74 21 0.0 7.0 0.00 0.00 0.00 43 1015.9
20210615223104 74 348 1.0 3.0 0.00 0.00 0.00 41 1015.9
20210615222604 74 353 2.0 3.0 0.00 0.00 0.00 41 1015.8
20210615222104 74 355 0.0 2.0 0.00 0.00 0.00 42 1016.0
20210615221605 74 355 2.0 3.0 0.00 0.00 0.00 41 1016.0
20210615221106 74 5 1.0 5.0 0.00 0.00 0.00 42 1016.0
20210615220605 74 351 0.0 3.0 0.00 0.00 0.00 42 1016.0
20210615220104 74 352 1.0 3.0 0.00 0.00 0.00 43 1016.0
20210615215604 74 357 1.0 5.0 0.00 0.00 0.00 44 1016.1
20210615215104 74 5 1.0 3.0 0.00 0.00 0.00 42 1016.1
20210615214605 74 0 2.0 5.0 0.00 0.00 0.00 42 1016.1
20210615214104 75 325 2.0 3.0 0.00 0.00 0.00 42 1016.1
20210615213604 75 351 1.0 7.0 0.00 0.00 0.00 42 1016.1
20210615213104 75 0 1.0 9.0 0.00 0.00 0.00 40 1016.2
20210615212604 76 5 1.0 5.0 0.00 0.00 0.00 37 1016.1
20210615212104 76 0 2.0 6.0 0.00 0.00 0.00 36 1016.2
20210615211604 77 349 2.0 5.0 0.00 0.00 0.00 35 1016.2
20210615211104 77 337 2.0 3.0 0.00 0.00 0.00 35 1016.2
20210615210604 78 355 2.0 3.0 0.00 0.00 0.00 37 1016.0
20210615210105 78 343 1.0 3.0 0.00 0.00 0.00 36 1015.9
20210615205606 79 0 1.0 3.0 0.00 0.00 0.00 36 1016.1
20210615205104 79 355 2.0 5.0 0.00 0.00 0.00 34 1016.0
20210615204604 80 0 1.0 9.0 0.00 0.00 0.00 35 1016.0
20210615204104 80 340 2.0 6.0 0.00 0.00 0.00 35 1015.9
20210615203605 80 11 2.0 5.0 0.00 0.00 0.00 34 1015.8
20210615203104 80 344 1.0 3.0 0.00 0.00 0.00 35 1015.7
20210615202604 80 355 1.0 3.0 0.00 0.00 0.00 34 1015.8
20210615202104 80 5 1.0 3.0 0.00 0.00 0.00 33 1015.7
20210615201604 80 9 0.0 3.0 0.00 0.00 0.00 35 1015.8
20210615201104 80 16 2.0 7.0 0.00 0.00 0.00 34 1015.7
20210615200604 80 355 1.0 3.0 0.00 0.00 0.00 38 1015.6
20210615200104 80 11 1.0 3.0 0.00 0.00 0.00 36 1015.7
20210615195604 80 356 2.0 7.0 0.00 0.00 0.00 38 1015.6
20210615195104 80 6 1.0 3.0 0.00 0.00 0.00 37 1015.6
20210615194604 80 9 2.0 6.0 0.00 0.00 0.00 36 1015.6
20210615194104 80 6 1.0 3.0 0.00 0.00 0.00 39 1015.7
20210615193604 80 9 2.0 5.0 0.00 0.00 0.00 38 1015.6
20210615193104 80 12 1.0 3.0 0.00 0.00 0.00 39 1015.6
20210615192604 80 8 2.0 5.0 0.00 0.00 0.00 37 1015.6
20210615192104 80 12 1.0 5.0 0.00 0.00 0.00 38 1015.6
20210615191604 80 236 1.0 3.0 0.00 0.00 0.00 39 1015.6
20210615191104 80 19 1.0 6.0 0.00 0.00 0.00 40 1015.6
20210615190604 80 3 2.0 3.0 0.00 0.00 0.00 43 1015.6
20210615190104 79 358 1.0 3.0 0.00 0.00 0.00 43 1015.6
20210615185604 79 5 0.0 3.0 0.00 0.00 0.00 41 1015.6
20210615185104 79 7 1.0 5.0 0.00 0.00 0.00 42 1015.6
20210615184604 79 358 1.0 3.0 0.00 0.00 0.00 44 1015.6
20210615184104 78 347 2.0 6.0 0.00 0.00 0.00 42 1015.6
20210615183603 78 0 2.0 5.0 0.00 0.00 0.00 43 1015.6
20210615183104 78 78 1.0 2.0 0.00 0.00 0.00 46 1015.6
20210615182604 78 355 1.0 3.0 0.00 0.00 0.00 44 1015.7
20210615182104 79 16 2.0 7.0 0.00 0.00 0.00 42 1015.7
20210615181604 79 5 1.0 6.0 0.00 0.00 0.00 44 1015.6
20210615181104 78 355 2.0 12.0 0.00 0.00 0.00 43 1015.6
20210615180604 78 1 3.0 9.0 0.00 0.00 0.00 45 1015.6
20210615180104 78 352 2.0 5.0 0.00 0.00 0.00 45 1015.6
20210615175604 78 5 2.0 3.0 0.00 0.00 0.00 43 1015.6
20210615175104 79 358 3.0 5.0 0.00 0.00 0.00 43 1015.6
20210615174606 78 344 2.0 5.0 0.00 0.00 0.00 42 1015.6
20210615174106 78 341 1.0 3.0 0.00 0.00 0.00 48 1015.7
20210615173606 78 5 1.0 3.0 0.00 0.00 0.00 46 1015.7
20210615173106 78 356 1.0 5.0 0.00 0.00 0.00 49 1015.7
20210615172606 78 6 2.0 6.0 0.00 0.00 0.00 47 1015.7
20210615172105 78 5 1.0 3.0 0.00 0.00 0.00 50 1015.7
20210615171605 78 5 2.0 7.0 0.00 0.00 0.00 48 1015.7
20210615171106 78 5 1.0 3.0 0.00 0.00 0.00 50 1015.7
20210615170606 77 19 0.0 2.0 0.00 0.00 0.00 52 1015.6
20210615170106 77 19 3.0 6.0 0.00 0.00 0.00 49 1015.6
20210615165605 77 356 2.0 7.0 0.00 0.00 0.00 51 1015.6
20210615165106 76 0 1.0 7.0 0.00 0.00 0.00 50 1015.6
20210615164606 76 13 1.0 5.0 0.00 0.00 0.00 51 1015.6
20210615164106 76 0 2.0 6.0 0.00 0.00 0.00 51 1015.6
20210615163605 76 342 1.0 5.0 0.00 0.00 0.00 54 1015.7
20210615163105 76 0 2.0 6.0 0.00 0.00 0.00 53 1015.7
20210615162605 76 18 2.0 5.0 0.00 0.00 0.00 55 1015.9
20210615162105 75 5 1.0 3.0 0.00 0.00 0.00 56 1015.9
20210615161606 75 5 1.0 3.0 0.00 0.00 0.00 56 1016.0
20210615161105 75 355 1.0 3.0 0.00 0.00 0.00 57 1016.1
20210615160606 74 8 1.0 3.0 0.00 0.00 0.00 59 1016.1
20210615160106 74 348 2.0 3.0 0.00 0.00 0.00 58 1016.1
20210615155607 73 358 2.0 5.0 0.00 0.00 0.00 60 1016.0
20210615155106 73 14 2.0 5.0 0.00 0.00 0.00 59 1016.0
20210615154605 73 7 2.0 6.0 0.00 0.00 0.00 58 1016.0
20210615154106 74 353 2.0 9.0 0.00 0.00 0.00 56 1016.0
20210615153606 74 6 2.0 7.0 0.00 0.00 0.00 56 1015.8
20210615153106 74 317 1.0 6.0 0.00 0.00 0.00 57 1015.6
20210615152606 75 328 1.0 3.0 0.00 0.00 0.00 57 1015.6
20210615152106 75 354 2.0 6.0 0.00 0.00 0.00 56 1015.6
20210615151605 75 343 0.0 5.0 0.00 0.00 0.00 57 1015.6
20210615151106 74 351 2.0 5.0 0.00 0.00 0.00 57 1015.6
20210615150605 74 0 2.0 5.0 0.00 0.00 0.00 58 1015.7
20210615150106 74 355 1.0 6.0 0.00 0.00 0.00 60 1015.7
20210615145606 74 5 1.0 6.0 0.00 0.00 0.00 59 1015.7
20210615145105 74 355 1.0 3.0 0.00 0.00 0.00 58 1015.7
20210615144606 74 8 1.0 5.0 0.00 0.00 0.00 57 1015.7
20210615144106 74 11 1.0 5.0 0.00 0.00 0.00 58 1015.7
20210615143606 75 351 1.0 6.0 0.00 0.00 0.00 58 1015.7
20210615143105 75 0 1.0 3.0 0.00 0.00 0.00 59 1015.7
20210615142606 75 5 0.0 3.0 0.00 0.00 0.00 59 1015.6
20210615142105 75 4 1.0 5.0 0.00 0.00 0.00 59 1015.7
20210615141606 75 357 2.0 5.0 0.00 0.00 0.00 61 1015.6
20210615141106 75 317 2.0 6.0 0.00 0.00 0.00 61 1015.6
20210615140605 75 357 1.0 3.0 0.00 0.00 0.00 61 1015.6
20210615140106 74 0 2.0 3.0 0.00 0.00 0.00 62 1015.6
20210615135605 74 18 1.0 3.0 0.00 0.00 0.00 62 1015.6
20210615135105 74 25 1.0 3.0 0.00 0.00 0.00 63 1015.6
20210615134605 73 26 0.0 2.0 0.00 0.00 0.00 65 1015.6
20210615134106 73 25 1.0 3.0 0.00 0.00 0.00 65 1015.5
20210615133605 72 26 0.0 2.0 0.00 0.00 0.00 67 1015.5
20210615133106 72 26 0.0 3.0 0.00 0.00 0.00 68 1015.5
20210615132605 72 26 0.0 1.0 0.00 0.00 0.00 70 1015.3
20210615132105 71 26 1.0 3.0 0.00 0.00 0.00 70 1015.3
20210615131605 71 26 1.0 3.0 0.00 0.00 0.00 72 1015.3
20210615131105 70 28 1.0 2.0 0.00 0.00 0.00 73 1015.2
20210615130605 69 69 0.0 2.0 0.00 0.00 0.00 75 1015.4
20210615130105 69 95 0.0 3.0 0.00 0.00 0.00 78 1015.5
20210615125607 68 68 0.0 2.0 0.00 0.00 0.00 81 1015.4
20210615125105 68 70 0.0 3.0 0.00 0.00 0.00 83 1015.3
20210615124606 67 355 0.0 3.0 0.00 0.00 0.00 85 1015.3
20210615124106 66 355 0.0 1.0 0.00 0.00 0.00 87 1015.3
20210615123605 65 355 1.0 3.0 0.00 0.00 0.00 88 1015.3
20210615123106 65 355 0.0 2.0 0.00 0.00 0.00 89 1015.3
20210615122605 64 355 0.0 5.0 0.00 0.00 0.00 91 1015.2
20210615122105 64 333 1.0 3.0 0.00 0.00 0.00 91 1015.2
20210615121606 63 314 0.0 1.0 0.00 0.00 0.00 92 1015.1
20210615121105 62 314 0.0 3.0 0.00 0.00 0.00 92 1015.1
20210615120605 62 266 0.0 2.0 0.00 0.00 0.00 92 1015.2
20210615120105 61 266 0.0 2.0 0.00 0.00 0.00 92 1015.1
20210615115605 61 355 1.0 3.0 0.00 0.00 0.00 92 1015.1
20210615115106 61 355 0.0 1.0 0.00 0.00 0.00 92 1015.1
20210615114605 60 355 0.0 1.0 0.00 0.00 0.00 92 1015.1
20210615114105 60 355 0.0 2.0 0.00 0.00 0.00 92 1015.1
20210615113605 60 355 0.0 2.0 0.00 0.00 0.00 92 1015.1
20210615113106 60 355 0.0 1.0 0.00 0.00 0.00 92 1015.1
20210615112605 59 355 0.0 0.0 0.00 0.00 0.00 91 1015.1
20210615112105 59 355 0.0 0.0 0.00 0.00 0.00 91 1015.0
20210615111605 59 355 0.0 0.0 0.00 0.00 0.00 91 1015.0
20210615111105 59 355 0.0 0.0 0.00 0.00 0.00 91 1015.0
20210615110605 59 355 0.0 0.0 0.00 0.00 0.00 91 1015.0
20210615110105 59 355 0.0 0.0 0.00 0.00 0.00 91 1014.9
20210615105605 59 355 0.0 0.0 0.00 0.00 0.00 91 1014.7
20210615105105 58 355 0.0 0.0 0.00 0.00 0.00 90 1014.6
20210615104605 58 355 0.0 0.0 0.00 0.00 0.00 90 1014.6
20210615104105 58 355 0.0 0.0 0.00 0.00 0.00 90 1014.6
20210615103605 58 355 0.0 0.0 0.00 0.00 0.00 90 1014.6
20210615103105 58 355 0.0 0.0 0.00 0.00 0.00 90 1014.4
20210615102605 58 355 0.0 0.0 0.00 0.00 0.00 90 1014.4
20210615102105 58 355 0.0 0.0 0.00 0.00 0.00 90 1014.3
20210615101605 58 355 0.0 0.0 0.00 0.00 0.00 89 1014.3
20210615101105 58 355 0.0 0.0 0.00 0.00 0.00 89 1014.2
20210615100605 58 355 0.0 0.0 0.00 0.00 0.00 89 1014.1
20210615100106 58 355 0.0 0.0 0.00 0.00 0.00 89 1014.1
20210615095605 58 355 0.0 0.0 0.00 0.00 0.00 89 1014.1
20210615095105 58 355 0.0 0.0 0.00 0.00 0.00 89 1014.1
20210615094605 58 355 0.0 0.0 0.00 0.00 0.00 89 1014.1
20210615094105 59 355 0.0 0.0 0.00 0.00 0.00 88 1014.0
20210615093605 59 355 0.0 0.0 0.00 0.00 0.00 88 1014.0
20210615093105 59 355 0.0 0.0 0.00 0.00 0.00 89 1013.9
20210615092605 59 355 0.0 0.0 0.00 0.00 0.00 89 1013.9
20210615092105 59 355 0.0 0.0 0.00 0.00 0.00 88 1013.8
20210615091605 59 355 0.0 0.0 0.00 0.00 0.00 88 1013.7
20210615091105 59 355 0.0 0.0 0.00 0.00 0.00 88 1013.7
20210615090605 59 355 0.0 0.0 0.00 0.00 0.00 88 1013.7
20210615090106 59 355 0.0 0.0 0.00 0.00 0.00 88 1013.7
20210615085605 59 355 0.0 0.0 0.00 0.00 0.00 88 1013.8
20210615085105 59 355 0.0 0.0 0.00 0.00 0.00 88 1013.8
20210615084606 59 355 0.0 0.0 0.00 0.00 0.00 88 1013.7
20210615084105 59 355 0.0 0.0 0.00 0.00 0.00 88 1013.7
20210615083607 59 355 0.0 0.0 0.00 0.00 0.00 88 1013.7
20210615083105 60 355 0.0 0.0 0.00 0.00 0.00 88 1013.7
20210615082605 60 355 0.0 0.0 0.00 0.00 0.00 88 1013.8
20210615082105 60 355 0.0 0.0 0.00 0.00 0.00 88 1013.8
20210615081605 60 355 0.0 0.0 0.00 0.00 0.00 88 1013.9
20210615081105 60 355 0.0 0.0 0.00 0.00 0.00 88 1013.8
20210615080605 60 355 0.0 0.0 0.00 0.00 0.00 88 1013.8
20210615080105 60 355 0.0 0.0 0.00 0.00 0.00 88 1013.7
20210615075605 60 355 0.0 0.0 0.00 0.00 0.00 87 1013.8
20210615075105 60 355 0.0 0.0 0.00 0.00 0.00 87 1013.7
20210615074605 60 355 0.0 0.0 0.00 0.00 0.00 87 1013.7
20210615074105 60 355 0.0 0.0 0.00 0.00 0.00 87 1013.7
20210615073605 60 355 0.0 0.0 0.00 0.00 0.00 87 1013.6
20210615073105 61 355 0.0 0.0 0.00 0.00 0.00 87 1013.5
20210615072605 61 355 0.0 0.0 0.00 0.00 0.00 87 1013.5
20210615072105 61 355 0.0 0.0 0.00 0.00 0.00 86 1013.5
20210615071605 61 355 0.0 0.0 0.00 0.00 0.00 86 1013.5
20210615071105 61 355 0.0 0.0 0.00 0.00 0.00 86 1013.5
20210615070605 61 355 0.0 0.0 0.00 0.00 0.00 86 1013.5
20210615070105 61 355 0.0 0.0 0.00 0.00 0.00 86 1013.4
20210615065605 61 355 0.0 0.0 0.00 0.00 0.00 86 1013.4
20210615065105 61 355 0.0 0.0 0.00 0.00 0.00 86 1013.5
20210615064605 61 355 0.0 0.0 0.00 0.00 0.00 86 1013.5
20210615064105 62 355 0.0 0.0 0.00 0.00 0.00 86 1013.5
20210615063605 62 355 0.0 0.0 0.00 0.00 0.00 85 1013.4
20210615063105 62 355 0.0 0.0 0.00 0.00 0.00 86 1013.4
20210615062605 62 355 0.0 0.0 0.00 0.00 0.00 85 1013.4
20210615062104 62 355 0.0 0.0 0.00 0.00 0.00 85 1013.4
20210615061605 62 355 0.0 0.0 0.00 0.00 0.00 85 1013.5
20210615061105 62 355 0.0 0.0 0.00 0.00 0.00 85 1013.5
20210615060605 62 355 0.0 0.0 0.00 0.00 0.00 85 1013.5
20210615060106 62 355 0.0 0.0 0.00 0.00 0.00 85 1013.5
20210615055604 62 355 0.0 0.0 0.00 0.00 0.00 85 1013.6
20210615055105 63 355 0.0 0.0 0.00 0.00 0.00 85 1013.6
20210615054605 63 355 0.0 0.0 0.00 0.00 0.00 85 1013.6
20210615054105 63 355 0.0 0.0 0.00 0.00 0.00 84 1013.5
20210615053604 63 355 0.0 0.0 0.00 0.00 0.00 84 1013.5
20210615053105 63 355 0.0 0.0 0.00 0.00 0.00 84 1013.5
20210615052605 63 355 0.0 0.0 0.00 0.00 0.00 84 1013.5
20210615052105 63 355 0.0 0.0 0.00 0.00 0.00 84 1013.5
20210615051605 63 355 0.0 0.0 0.00 0.00 0.00 83 1013.5
20210615051104 63 355 0.0 0.0 0.00 0.00 0.00 83 1013.4
20210615050605 63 355 0.0 0.0 0.00 0.00 0.00 83 1013.4
20210615050105 63 355 0.0 0.0 0.00 0.00 0.00 83 1013.4
20210615045605 64 355 0.0 0.0 0.00 0.00 0.00 83 1013.4
20210615045105 64 355 0.0 0.0 0.00 0.00 0.00 82 1013.4
20210615044605 64 355 0.0 0.0 0.00 0.00 0.00 82 1013.4
20210615044104 64 355 0.0 0.0 0.00 0.00 0.00 81 1013.4
20210615043605 64 355 0.0 0.0 0.00 0.00 0.00 81 1013.4
20210615043105 64 355 0.0 0.0 0.00 0.00 0.00 81 1013.4
20210615042604 64 355 0.0 0.0 0.00 0.00 0.00 80 1013.4
20210615042105 64 355 0.0 0.0 0.00 0.00 0.00 80 1013.4
20210615041605 64 355 0.0 0.0 0.00 0.00 0.00 80 1013.4
20210615041104 65 355 0.0 0.0 0.00 0.00 0.00 79 1013.4
20210615040605 65 355 0.0 0.0 0.00 0.00 0.00 79 1013.4
20210615040105 65 355 0.0 0.0 0.00 0.00 0.00 78 1013.4
20210615035605 65 355 0.0 0.0 0.00 0.00 0.00 78 1013.4
20210615035104 65 355 0.0 0.0 0.00 0.00 0.00 78 1013.4
20210615034605 65 355 0.0 0.0 0.00 0.00 0.00 77 1013.3
20210615034104 65 355 0.0 0.0 0.00 0.00 0.00 77 1013.3
20210615033604 66 355 0.0 0.0 0.00 0.00 0.00 76 1013.2
20210615033105 66 355 0.0 0.0 0.00 0.00 0.00 75 1013.1
20210615032604 66 355 0.0 0.0 0.00 0.00 0.00 75 1013.1
20210615032106 66 355 0.0 0.0 0.00 0.00 0.00 74 1013.2
20210615031605 66 355 0.0 0.0 0.00 0.00 0.00 74 1013.3
20210615031104 66 355 0.0 0.0 0.00 0.00 0.00 73 1013.2
20210615030604 66 355 0.0 0.0 0.00 0.00 0.00 73 1013.3
20210615030105 67 355 0.0 0.0 0.00 0.00 0.00 72 1013.3
20210615025605 67 355 0.0 0.0 0.00 0.00 0.00 72 1013.3
20210615025104 67 355 0.0 0.0 0.00 0.00 0.00 72 1013.2
20210615024604 67 355 0.0 0.0 0.00 0.00 0.00 71 1013.2
20210615024104 67 355 0.0 0.0 0.00 0.00 0.00 71 1013.0
20210615023605 67 355 0.0 0.0 0.00 0.00 0.00 70 1013.0
20210615023105 68 355 0.0 0.0 0.00 0.00 0.00 70 1013.0
20210615022605 68 355 0.0 0.0 0.00 0.00 0.00 69 1012.9
20210615022104 68 355 0.0 0.0 0.00 0.00 0.00 69 1012.9
20210615021605 68 355 0.0 0.0 0.00 0.00 0.00 69 1012.9
20210615021104 68 355 0.0 0.0 0.00 0.00 0.00 69 1012.9
20210615020605 68 355 0.0 0.0 0.00 0.00 0.00 69 1012.9
20210615020105 68 355 0.0 0.0 0.00 0.00 0.00 69 1012.7
20210615015605 69 355 0.0 0.0 0.00 0.00 0.00 69 1012.6
20210615015104 69 355 0.0 0.0 0.00 0.00 0.00 68 1012.4
20210615014605 69 355 1.0 2.0 0.00 0.00 0.00 68 1012.3
20210615014105 69 355 0.0 1.0 0.00 0.00 0.00 68 1012.3
20210615013604 69 355 1.0 3.0 0.00 0.00 0.00 68 1012.2
20210615013105 70 355 0.0 0.0 0.00 0.00 0.00 67 1012.1
20210615012605 70 355 0.0 0.0 0.00 0.00 0.00 67 1012.0
20210615012105 70 355 0.0 0.0 0.00 0.00 0.00 67 1011.9
20210615011604 70 355 0.0 0.0 0.00 0.00 0.00 67 1011.9
20210615011104 70 355 0.0 1.0 0.00 0.00 0.00 66 1011.8
20210615010604 70 355 0.0 1.0 0.00 0.00 0.00 66 1011.8
20210615010105 71 355 1.0 3.0 0.00 0.00 0.00 66 1011.8
20210615005604 71 355 0.0 1.0 0.00 0.00 0.00 65 1011.8
20210615005104 71 355 0.0 2.0 0.00 0.00 0.00 65 1011.8
20210615004605 71 355 0.0 1.0 0.00 0.00 0.00 64 1011.8